Location: Brno
(49.2000°N, 16.6330°E)
Time: 06:36:56
(UTC+01:00)

BREEZE M DEB (TANK) - Visible Passes

Search period start: 31 October 2014 00:00
Search period end: 10 November 2014 00:00
Orbit: 308 x 12183 km, 49.5° (Epoch: 28 October)

Date Brightness Start Highest point End Pass type
(mag) Time Alt. Az. Time Alt. Az. Time Alt. Az.
31 Oct 5.3 17:40:08 10° SW 18:17:32 55° SSE 18:23:58 25° E visible
31 Oct 6.1 22:13:37 10° W 22:19:13 24° W 22:19:13 24° W visible
01 Nov 5.6 17:07:11 10° SSW 17:47:15 51° SSE 17:55:30 17° E visible
01 Nov 5.7 21:41:53 10° W 21:50:45 33° W 21:50:45 33° W visible
02 Nov 5.9 16:34:33 10° SSW 17:16:49 47° SE 17:27:00 11° ENE visible
02 Nov 5.3 21:09:44 10° W 21:22:15 45° W 21:22:15 45° W visible
03 Nov 4.8 20:37:09 10° W 20:53:43 60° W 20:53:43 60° W visible
04 Nov 4.5 20:04:06 10° WSW 20:25:08 80° WSW 20:25:08 80° WSW visible
05 Nov 4.3 19:30:37 10° WSW 19:55:49 85° SSE 19:56:32 78° E visible
06 Nov 4.4 18:56:43 10° WSW 19:25:45 81° SSE 19:27:54 58° E visible
07 Nov 4.7 18:22:31 10° WSW 18:55:34 77° SSE 18:59:14 43° E visible
07 Nov 6.6 22:53:49 10° WNW 22:54:27 12° WNW 22:54:27 12° WNW visible
08 Nov 5.0 17:48:05 10° SW 18:25:16 73° SSE 18:30:32 31° E visible
08 Nov 6.3 22:22:33 10° WNW 22:25:45 18° WNW 22:25:45 18° WNW visible
09 Nov 5.3 17:13:36 10° SW 17:54:51 68° SSE 18:01:48 22° ENE visible
09 Nov 6.0 21:50:57 10° WNW 21:57:01 25° W 21:57:01 25° W visible
